[[{"header":{"parameterUnit":"m.s-1","parameterCategory":1,"la1":30.2991,"la2":30.254,"lo1":-89.0895,"lo2":-89.0444,"dy":0.0017,"dx":0.0017,"nx":28,"ny":28,"refTime":"2023-05-01T21:00:00:Z","depth":0,"parameterNumber":2,"parameterNumberName":"U-component_of_WINDS"},"data":[0,0,0,0,0,0,0,0,0,0,0,0,0,0,0,0,0,0,0,0,0,0,0,0,0,0,0,0,0,0,0,0,0,0,0,0,0,0,0,0,0,0,0,0,0,0,0,0,0,0,0,0,0,0,0,0,0,0,0.8994,0.8994,0,0.9022,0.9022,0.9022,0.9091,0.9092,0.9093,0.9095,0.9123,0.9122,0.9122,0,0,0,0,0,0,0,0,0,0,0,0,0,0.9001,0.9001,0.8994,0.8994,0.8995,0.9021,0.9022,0.9022,0.909,0.9092,0.9094,0.9095,0.9123,0.9122,0.9122,0,0,0,0,0,0,0,0,0,0,0,0,0,0.901,0.9001,0.8994,0.9032,0.9035,0.9021,0.9022,0.9022,0.909,0.9092,0.9094,0.9096,0.9123,0.9123,0.9122,0.9073,0,0,0.9119,0.9119,0,0,0,0,0,0,0,0,0.901,0.901,0.9026,0.9029,0.9033,0.9055,0.9035,0.9039,0.9089,0.9069,0.9095,0.9097,0.9099,0.91,0.91,0.9074,0.9075,0.9119,0.9118,0.9118,0.9118,0,0,0,0,0,0,0,0.9009,0.9009,0.9005,0.9026,0.9031,0.9048,0.9051,0.9036,0.9071,0.9071,0.9076,0.9079,0.9101,0.9101,0.9101,0.9076,0.9119,0.9118,0.9118,0.9117,0.9014,0.9011,0,0,0,0,0,0,0.9003,0.9008,0.9004,0.9006,0.9027,0.9046,0.905,0.9046,0.9072,0.9078,0.9077,0.9082,0.9101,0.9102,0.9103,0.9049,0.9118,0.9117,0.9117,0.9016,0.9013,0.9011,0,0,0,0,0,0,0.9003,0.9002,0.9003,0.9008,0.901,0.9044,0.9038,0.9045,0.9045,0.9076,0.9083,0.907,0.9103,0.9104,0.908,0.9051,0.9117,0.9116,0.9018,0.9015,0.9012,0.894,0,0,0,0,0,0,0.9003,0.9001,0.8983,0.9007,0.9009,0.8979,0.9036,0.9044,0.9043,0.905,0.9072,0.9077,0.9105,0.9081,0.9079,0.9051,0.9115,0.9021,0.9017,0.9013,0.8945,0.8935,0.8926,0,0,0,0,0,0.9003,0.8961,0.8981,0.8981,0.8987,0.8978,0.8979,0.9011,0.9041,0.9023,0.9043,0.9076,0.9054,0.9078,0.9077,0.9047,0.9023,0.9018,0.9013,0.895,0.8937,0.8926,0,0,0,0,0,0,0.8932,0.8965,0.8988,0.8953,0.8962,0.8989,0.8967,0.8996,0.8997,0.9004,0.9044,0.9049,0.902,0.9031,0.9057,0.9003,0.9044,0.9039,0.8996,0.8984,0.8975,0.8973,0.9114,0,0,0,0,0,0.8912,0.8901,0.8931,0.8897,0.8901,0.8933,0.893,0.8955,0.8966,0.897,0.8988,0.8998,0.8993,0.8989,0.8987,0.8947,0.8954,0.8926,0.8916,0.8908,0.8903,0.8885,0.8874,0.8994,0.8994,0.8994,0,0,0.8871,0.8888,0.8879,0.8884,0.8894,0.8883,0.8936,0.8921,0.8914,0.8968,0.8947,0.8961,0.8974,0.8943,0.893,0.8952,0.8872,0.8902,0.8895,0.8895,0.8879,0.8867,0.8857,0.8991,0.8991,0.8992,0,0,0.8791,0.8802,0.8776,0.8785,0.88,0.8822,0.8816,0.8839,0.885,0.883,0.8871,0.8863,0.8853,0.8862,0.8865,0.879,0.8821,0.8787,0.8737,0.8719,0.8709,0.8701,0.8676,0.8666,0.8782,0.8782,0.8782,0,0.8739,0.8724,0.8759,0.8743,0.8745,0.8793,0.8768,0.8775,0.8787,0.8788,0.8812,0.8802,0.8815,0.8787,0.8769,0.8769,0.8764,0.8786,0.8707,0.87,0.8693,0.8669,0.8659,0.8778,0.8778,0.8779,0.8779,0,0.8659,0.8648,0.8625,0.8637,0.8636,0.8615,0.8648,0.8643,0.8668,0.8687,0.8667,0.8684,0.8686,0.8681,0.8705,0.8657,0.8671,0.87,0.8743,0.8676,0.8655,0.8646,0.8772,0.8774,0.8775,0.8776,0,0,0.8535,0.8568,0.8559,0.8566,0.8586,0.8578,0.856,0.8563,0.8558,0.8565,0.8552,0.8544,0.8572,0.8575,0.8601,0.8584,0.8526,0.8617,0.8618,0.8601,0.8477,0.8455,0.8444,0.8547,0.8545,0.8544,0.8476,0,0.8461,0.8432,0.8465,0.8429,0.842,0.8467,0.8451,0.8462,0.848,0.8476,0.8496,0.849,0.8527,0.8529,0.8515,0.8536,0.8502,0.8541,0.8536,0.8535,0.8532,0.8433,0.8409,0.8345,0.8468,0.8466,0.8465,0,0.8371,0.8375,0.8339,0.8363,0.8361,0.8346,0.8352,0.8347,0.8361,0.8375,0.8379,0.841,0.8395,0.8436,0.8416,0.8442,0.8442,0.8452,0.845,0.8452,0.8497,0.8433,0.8325,0.8315,0.8452,0.8453,0.8454,0,0.8287,0.8283,0.8261,0.8265,0.8292,0.8281,0.8292,0.8308,0.8308,0.8313,0.8314,0.8317,0.8319,0.8321,0.8352,0.8379,0.8329,0.8372,0.8342,0.8341,0.833,0.8331,0.8222,0.8328,0.8328,0.8328,0.8328,0,0.8202,0.8178,0.8224,0.821,0.8186,0.8223,0.8198,0.8213,0.8228,0.8219,0.8259,0.825,0.8291,0.8286,0.8311,0.8292,0.8292,0.8304,0.8311,0.8301,0.83,0.8303,0.8309,0.8325,0.8326,0.8326,0.8327,0,0.8103,0.8133,0.8112,0.814,0.8147,0.8127,0.8151,0.8141,0.8162,0.815,0.815,0.8182,0.818,0.8211,0.8213,0.823,0.8201,0.8215,0.8196,0.8201,0.817,0.8173,0.8059,0.8047,0.8159,0.8158,0.8157,0,0.8048,0.8031,0.8057,0.8054,0.8063,0.8058,0.8058,0.8095,0.8094,0.811,0.8097,0.8098,0.81,0.8093,0.8118,0.8121,0.8136,0.8097,0.8137,0.8129,0.8138,0.8139,0.8139,0.8088,0.8087,0.8086,0.8085,0,0.7947,0.7963,0.7962,0.7967,0.7967,0.7972,0.798,0.7975,0.8015,0.8012,0.801,0.8012,0.8016,0.8016,0.8024,0.8036,0.8067,0.8072,0.8065,0.8056,0.8046,0.8053,0.8174,0.8074,0.8075,0.8076,0.8077,0.8077,0.7869,0.7857,0.7874,0.7873,0.7883,0.789,0.7882,0.7902,0.7901,0.7907,0.7928,0.7923,0.7939,0.7953,0.7962,0.7959,0.7978,0.7968,0.7966,0.7963,0.7958,0.8046,0.796,0.796,0.796,0.7961,0.7961,0,0.7772,0.7786,0.7784,0.7794,0.7793,0.7823,0.7834,0.7831,0.7826,0.7838,0.784,0.7838,0.7839,0.7864,0.7868,0.7861,0.7876,0.7861,0.7863,0.7866,0.794,0.7946,0.7849,0.7849,0.7849,0.7849,0.7849,0.7849,0.7721,0.7703,0.7721,0.7708,0.7722,0.7717,0.7721,0.7728,0.7739,0.7735,0.7736,0.7752,0.777,0.7776,0.7779,0.7787,0.7787,0.7768,0.778,0.7849,0.786,0.787,0.7876,0.7767,0.7767,0.7707,0.7706,0.7706]},{"header":{"parameterUnit":"m.s-1","parameterCategory":1,"la1":30.2991,"la2":30.254,"lo1":-89.0895,"lo2":-89.0444,"dy":0.0017,"dx":0.0017,"nx":28,"ny":28,"refTime":"2023-05-01T21:00:00:Z","depth":0,"parameterNumber":3,"parameterNumberName":"V-component_of_WINDS"},"data":[0,0,0,0,0,0,0,0,0,0,0,0,0,0,0,0,0,0,0,0,0,0,0,0,0,0,0,0,0,0,0,0,0,0,0,0,0,0,0,0,0,0,0,0,0,0,0,0,0,0,0,0,0,0,0,0,0,0,1.1754,1.1755,0,1.181,1.181,1.1811,1.1855,1.1855,1.1856,1.1856,1.1914,1.1915,1.1916,0,0,0,0,0,0,0,0,0,0,0,0,0,1.1684,1.1685,1.1754,1.1755,1.1755,1.181,1.181,1.1811,1.1855,1.1856,1.1856,1.1857,1.1913,1.1915,1.1916,0,0,0,0,0,0,0,0,0,0,0,0,0,1.1724,1.1685,1.1754,1.1784,1.1787,1.1809,1.181,1.1811,1.1855,1.1856,1.1856,1.1857,1.1913,1.1914,1.1916,1.1913,0,0,1.1921,1.1922,0,0,0,0,0,0,0,0,1.1722,1.1727,1.1779,1.1782,1.1785,1.1826,1.1807,1.1846,1.1855,1.1829,1.1856,1.1857,1.1884,1.1888,1.1897,1.1916,1.1919,1.1921,1.1922,1.1923,1.1924,0,0,0,0,0,0,0,1.1719,1.1725,1.1776,1.1779,1.1783,1.1794,1.18,1.1814,1.1852,1.1831,1.1835,1.1841,1.1886,1.1895,1.1899,1.1919,1.1921,1.1923,1.1924,1.1925,1.1935,1.1935,0,0,0,0,0,0,1.1712,1.1722,1.1774,1.1778,1.1755,1.1794,1.1802,1.1812,1.1852,1.1859,1.184,1.1843,1.1892,1.1897,1.1901,1.1898,1.1923,1.1925,1.1926,1.1936,1.1935,1.1935,0,0,0,0,0,0,1.171,1.1716,1.1772,1.1751,1.1759,1.1795,1.1807,1.1813,1.1823,1.1859,1.1866,1.1843,1.1893,1.1899,1.1909,1.1901,1.1925,1.1927,1.1937,1.1936,1.1935,1.1894,0,0,0,0,0,0,1.1708,1.1715,1.1715,1.175,1.176,1.178,1.1806,1.1814,1.1825,1.1829,1.1863,1.1869,1.1894,1.1906,1.1911,1.1904,1.1928,1.1938,1.1937,1.1935,1.1896,1.1891,1.1887,0,0,0,0,0,1.1705,1.1702,1.1715,1.1721,1.176,1.1779,1.1784,1.1813,1.1825,1.1824,1.1847,1.1868,1.1901,1.1907,1.1913,1.1906,1.1939,1.1937,1.1935,1.1898,1.1892,1.1887,0,0,0,0,0,0,1.1666,1.1707,1.1722,1.173,1.1751,1.1787,1.1787,1.1806,1.1824,1.1827,1.1861,1.1868,1.1874,1.1891,1.1897,1.1903,1.1922,1.1922,1.1892,1.1887,1.1883,1.1878,1.193,0,0,0,0,0,1.1658,1.167,1.1706,1.1709,1.1719,1.1751,1.176,1.178,1.1803,1.1812,1.1835,1.1856,1.1871,1.188,1.1896,1.1899,1.1905,1.1896,1.1892,1.1888,1.1887,1.1887,1.1882,1.1929,1.1929,1.1929,0,0,1.1642,1.1666,1.1672,1.1702,1.172,1.1731,1.1758,1.1769,1.1777,1.1813,1.1824,1.1842,1.1867,1.1873,1.1877,1.1887,1.1875,1.1886,1.1883,1.1884,1.1884,1.188,1.1876,1.1928,1.1928,1.1929,0,0,1.1618,1.1638,1.1642,1.1659,1.1686,1.1707,1.1708,1.174,1.1753,1.1764,1.1791,1.1801,1.1826,1.1842,1.1854,1.1832,1.1852,1.1837,1.1814,1.1813,1.181,1.1806,1.1796,1.1793,1.1836,1.1836,1.1835,0,1.1595,1.1613,1.1642,1.165,1.1662,1.1694,1.1697,1.1713,1.1743,1.175,1.1761,1.1791,1.1811,1.182,1.1814,1.1823,1.1824,1.1833,1.1808,1.1805,1.1802,1.1793,1.179,1.1833,1.1834,1.1834,1.1834,0,1.1582,1.1593,1.1593,1.162,1.1632,1.1637,1.1667,1.1675,1.1692,1.1712,1.1721,1.1746,1.1765,1.1769,1.1788,1.1779,1.1785,1.1801,1.1821,1.1795,1.1787,1.1784,1.183,1.1831,1.1832,1.1832,0,0,1.1536,1.1577,1.1576,1.1588,1.1618,1.1627,1.1633,1.1652,1.1657,1.1677,1.1681,1.1701,1.1715,1.1728,1.1748,1.1748,1.1726,1.1765,1.1766,1.1755,1.1716,1.1701,1.1697,1.1739,1.1739,1.1739,1.1713,0,1.1516,1.1528,1.1554,1.1558,1.1568,1.1597,1.1602,1.162,1.1638,1.1648,1.1668,1.168,1.17,1.1707,1.1708,1.1729,1.1718,1.1731,1.1743,1.1743,1.1734,1.1693,1.1679,1.1654,1.171,1.1709,1.1709,0,1.1494,1.151,1.1515,1.1541,1.1546,1.155,1.1568,1.1578,1.1598,1.1611,1.1623,1.1645,1.1651,1.167,1.1678,1.1686,1.1692,1.1703,1.1703,1.1704,1.1723,1.1691,1.1646,1.1642,1.1705,1.1705,1.1706,0,1.1457,1.148,1.1485,1.1494,1.1526,1.1528,1.1541,1.1562,1.1571,1.1586,1.1591,1.1607,1.1616,1.1627,1.1652,1.1663,1.1656,1.1678,1.1666,1.1665,1.1662,1.1662,1.1615,1.1669,1.1669,1.1669,1.1669,0,1.1431,1.1433,1.1468,1.1471,1.1473,1.1501,1.1502,1.1518,1.1536,1.1541,1.1568,1.1573,1.1606,1.1614,1.1633,1.1635,1.164,1.1649,1.1654,1.1645,1.1644,1.1649,1.1651,1.1668,1.1668,1.1668,1.1669,0,1.1391,1.1415,1.1422,1.1451,1.1458,1.1457,1.1481,1.1484,1.1503,1.1509,1.1512,1.1541,1.1551,1.1577,1.1595,1.1607,1.1604,1.1614,1.1596,1.1599,1.1585,1.1585,1.1539,1.1533,1.1592,1.1591,1.1591,0,1.1372,1.1373,1.1401,1.1406,1.1418,1.1427,1.1434,1.1462,1.1469,1.149,1.149,1.1503,1.1514,1.1529,1.1551,1.1564,1.1573,1.1556,1.1575,1.1566,1.157,1.1569,1.1568,1.1551,1.1551,1.155,1.155,0,1.1335,1.1346,1.1357,1.137,1.1379,1.1391,1.1405,1.1407,1.1438,1.1444,1.1454,1.1463,1.1479,1.149,1.1506,1.1519,1.1538,1.1543,1.1541,1.1531,1.152,1.1523,1.1583,1.1544,1.1545,1.1545,1.1545,1.1545,1.1304,1.1305,1.1323,1.1333,1.1346,1.1357,1.136,1.1378,1.1387,1.1402,1.1417,1.1425,1.1443,1.1466,1.1477,1.1483,1.1493,1.149,1.1489,1.1487,1.1482,1.152,1.1486,1.1486,1.1486,1.1487,1.1487,0,1.1266,1.1279,1.1288,1.1305,1.1311,1.1329,1.1344,1.1348,1.1354,1.1369,1.1379,1.1389,1.1399,1.142,1.1432,1.1432,1.1441,1.1434,1.1434,1.1436,1.1474,1.1474,1.1426,1.1426,1.1426,1.1426,1.1427,1.1427,1.1248,1.1249,1.1262,1.1269,1.1282,1.1289,1.1296,1.1305,1.1317,1.1327,1.1334,1.1348,1.1365,1.1377,1.1387,1.1393,1.1395,1.1384,1.1393,1.1428,1.1433,1.1439,1.1439,1.1385,1.1385,1.1354,1.1354,1.1353]}]]